Terug naar catalogus

STARLINK-34858

ActiefCommunicatieVLEO
NORAD 65023·PAYLOAD·🇺🇸 United States

Gelanceerd Jul 30, 2025 vanaf Cape Canaveral Space Force Station

Loading…

Volgende Passages (komende 24 uur)

TLE

VersSource: CelesTrak SupGP

Epoch: Sep 15, 2026, 03:18 UTC

1 65023C 25161J   26258.13798611  .00048451  00000+0  14316-2 0  2586
2 65023  53.1561 132.4788 0001303  84.5180 145.3696 15.34363522    14

Volg STARLINK-34858 in realtime met AllMySat

Download on the App Store